User: anonymous   Login
Location: Montr�al
(45.5000°N, 73.5830°W)
Time: 22:13:01
(UTC-04:00)
Language:

Cosmos 2369 - Orbit

View from above orbital plane
View from above orbital plane
View from above satellite
View from above satellite

Ground track
Ground track

The orbit data is extracted from the following two-line orbital elements,

1 26069U 00006A   17081.80634512 +.00000310 +00000-0 +19021-3 0  9995
2 26069 070.9954 180.0199 0011018 353.8103 006.2881 14.13341020883914
Epoch (UTC): 22 March 2017 19:21:08
Eccentricity: 0.0011018
inclination: 70.9954°
perigee height: 840 km
apogee height: 856 km
right ascension of ascending node: 180.0199°
argument of perigee: 353.8103°
revolutions per day: 14.13341020
mean anomaly at epoch: 6.2881°
orbit number at epoch: 88391

The dashed part of the orbit path shows where the satellite is in the earth's shadow,  

DLR